When you browse on this site, cookies collect data to enhance your experience and personalize the content and advertising you see.
Visit our Privacy Policy to learn more. By continuing to use the site, you agree to this use of cookies and data.
  • In Spain
  • List of Countries
  • For 7 days
  • Water Temperature
  • Satellite Maps
  • Weather Map
  • Weather Widgets
  • user-avatar
    Login

    Hourly Weather Caltenco

    Today, 22 April, Monday

    Time Temperature Precipitation Wind Pressure Humidity
    00:00 +19°C° 0 mm 2 mps 600 mmHg 44%
    01:00 +19°C° 0 mm 1 mps 600 mmHg 46%
    02:00 +19°C° 0 mm 1 mps 599 mmHg 48%
    03:00 +18°C° 0 mm 1 mps 599 mmHg 50%
    04:00 +15°C° 0 mm 0 mps 599 mmHg 53%
    05:00 +15°C° 0 mm 0 mps 598 mmHg 53%
    06:00 +19°C° 0 mm 1 mps 599 mmHg 49%
    07:00 +21°C° 0 mm 1 mps 600 mmHg 44%
    08:00 +23°C° 0 mm 2 mps 601 mmHg 40%
    09:00 +25°C° 0 mm 2 mps 601 mmHg 35%
    10:00 +26°C° 0 mm 2 mps 602 mmHg 30%
    11:00 +28°C° 0 mm 3 mps 602 mmHg 26%
    12:00 +29°C° 0 mm 3 mps 602 mmHg 24%
    13:00 +30°C° 0 mm 4 mps 602 mmHg 22%
    14:00 +32°C° 0 mm 4 mps 602 mmHg 20%
    15:00 +30°C° 0 mm 5 mps 602 mmHg 21%
    16:00 +30°C° 0 mm 5 mps 601 mmHg 22%
    17:00 +29°C° 0 mm 5 mps 601 mmHg 24%
    18:00 +27°C° 0 mm 4 mps 601 mmHg 29%
    19:00 +25°C° 0 mm 4 mps 601 mmHg 35%
    20:00 +24°C° 0 mm 3 mps 601 mmHg 40%
    21:00 +23°C° 0 mm 2 mps 600 mmHg 44%
    22:00 +21°C° 0 mm 2 mps 600 mmHg 48%
    23:00 +21°C° 0 mm 1 mps 600 mmHg 51%

    Tomorrow, 23 April, Tuesday

    Time Temperature Precipitation Wind Pressure Humidity
    00:00 +20°C° 0 mm 1 mps 599 mmHg 54%
    01:00 +19°C° 0 mm 1 mps 598 mmHg 56%
    02:00 +19°C° 0 mm 1 mps 598 mmHg 58%
    03:00 +18°C° 0 mm 1 mps 598 mmHg 58%
    04:00 +16°C° 0 mm 1 mps 597 mmHg 57%
    05:00 +15°C° 0 mm 0 mps 597 mmHg 57%
    06:00 +19°C° 0 mm 1 mps 598 mmHg 52%
    07:00 +21°C° 0 mm 1 mps 599 mmHg 46%
    08:00 +23°C° 0 mm 2 mps 600 mmHg 41%
    09:00 +25°C° 0 mm 2 mps 601 mmHg 37%
    10:00 +26°C° 0 mm 3 mps 601 mmHg 33%
    11:00 +28°C° 0 mm 4 mps 602 mmHg 29%
    12:00 +29°C° 0 mm 4 mps 601 mmHg 28%
    13:00 +29°C° 0 mm 5 mps 601 mmHg 26%
    14:00 +30°C° 0 mm 6 mps 600 mmHg 25%
    15:00 +29°C° 0 mm 5 mps 600 mmHg 25%
    16:00 +29°C° 0 mm 5 mps 600 mmHg 26%
    17:00 +28°C° 0 mm 5 mps 600 mmHg 26%
    18:00 +27°C° 0 mm 4 mps 600 mmHg 32%
    19:00 +25°C° 0 mm 3 mps 599 mmHg 38%
    20:00 +23°C° 0 mm 2 mps 599 mmHg 44%
    21:00 +23°C° 0 mm 2 mps 599 mmHg 47%
    22:00 +21°C° 0 mm 2 mps 599 mmHg 51%
    23:00 +20°C° 0 mm 2 mps 599 mmHg 54%

    Day after tomorrow, 24 April, Wednesday

    Time Temperature Precipitation Wind Pressure Humidity
    00:00 +20°C° 0 mm 1 mps 598 mmHg 57%
    01:00 +20°C° 0 mm 1 mps 598 mmHg 59%
    02:00 +19°C° 0 mm 1 mps 597 mmHg 61%
    03:00 +18°C° 0 mm 1 mps 597 mmHg 64%
    04:00 +16°C° 0 mm 1 mps 596 mmHg 66%
    05:00 +16°C° 0 mm 1 mps 596 mmHg 68%
    06:00 +19°C° 0 mm 1 mps 597 mmHg 61%
    07:00 +20°C° 0 mm 2 mps 598 mmHg 54%
    08:00 +23°C° 0 mm 2 mps 599 mmHg 46%
    09:00 +25°C° 0 mm 3 mps 600 mmHg 41%
    10:00 +26°C° 0 mm 4 mps 600 mmHg 36%
    11:00 +28°C° 0 mm 5 mps 601 mmHg 30%
    12:00 +29°C° 0 mm 6 mps 600 mmHg 28%
    13:00 +30°C° 0 mm 6 mps 600 mmHg 26%
    14:00 +30°C° 0 mm 7 mps 599 mmHg 24%
    15:00 +29°C° 0 mm 7 mps 599 mmHg 24%
    16:00 +29°C° 0 mm 7 mps 598 mmHg 24%
    17:00 +28°C° 0 mm 7 mps 598 mmHg 24%
    18:00 +26°C° 0 mm 6 mps 598 mmHg 27%
    19:00 +25°C° 0 mm 4 mps 598 mmHg 30%
    20:00 +22°C° 0 mm 3 mps 598 mmHg 33%
    21:00 +22°C° 0 mm 3 mps 598 mmHg 35%
    22:00 +21°C° 0 mm 3 mps 598 mmHg 38%
    23:00 +20°C° 0 mm 2 mps 598 mmHg 41%

    25 April, Thursday

    Time Temperature Precipitation Wind Pressure Humidity
    00:00 +19°C° 0 mm 2 mps 597 mmHg 46%
    01:00 +19°C° 0 mm 1 mps 596 mmHg 51%
    02:00 +18°C° 0 mm 1 mps 596 mmHg 56%
    03:00 +18°C° 0 mm 1 mps 596 mmHg 59%
    04:00 +16°C° 0 mm 1 mps 596 mmHg 63%
    05:00 +14°C° 0 mm 0 mps 595 mmHg 67%
    06:00 +18°C° 0 mm 1 mps 597 mmHg 57%
    07:00 +20°C° 0 mm 1 mps 598 mmHg 47%
    08:00 +23°C° 0 mm 1 mps 600 mmHg 36%
    09:00 +24°C° 0 mm 2 mps 600 mmHg 31%
    10:00 +26°C° 0 mm 3 mps 601 mmHg 26%
    11:00 +28°C° 0 mm 3 mps 601 mmHg 21%
    12:00 +29°C° 0 mm 4 mps 601 mmHg 19%
    13:00 +30°C° 0 mm 5 mps 601 mmHg 17%
    14:00 +32°C° 0 mm 6 mps 601 mmHg 16%
    15:00 +30°C° 0 mm 6 mps 601 mmHg 15%
    16:00 +29°C° 0 mm 6 mps 601 mmHg 15%
    17:00 +28°C° 0 mm 6 mps 601 mmHg 15%
    18:00 +26°C° 0 mm 5 mps 601 mmHg 21%
    19:00 +24°C° 0 mm 3 mps 601 mmHg 27%
    20:00 +23°C° 0 mm 2 mps 601 mmHg 33%
    21:00 +21°C° 0 mm 2 mps 601 mmHg 42%
    22:00 +20°C° 0 mm 2 mps 601 mmHg 52%
    23:00 +19°C° 0 mm 2 mps 600 mmHg 62%

    26 April, Friday

    Time Temperature Precipitation Wind Pressure Humidity
    00:00 +19°C° 0 mm 2 mps 600 mmHg 67%
    01:00 +18°C° 0 mm 2 mps 600 mmHg 72%
    02:00 +17°C° 0 mm 2 mps 599 mmHg 77%
    03:00 +17°C° 0 mm 2 mps 599 mmHg 78%
    04:00 +17°C° 0 mm 2 mps 599 mmHg 78%
    05:00 +16°C° 0 mm 2 mps 599 mmHg 79%
    06:00 +18°C° 0 mm 2 mps 601 mmHg 67%
    07:00 +20°C° 0 mm 2 mps 602 mmHg 55%
    08:00 +22°C° 0 mm 3 mps 603 mmHg 44%
    09:00 +24°C° 0 mm 3 mps 603 mmHg 38%
    10:00 +26°C° 0 mm 2 mps 603 mmHg 32%
    11:00 +27°C° 0 mm 2 mps 604 mmHg 26%
    12:00 +28°C° 0 mm 3 mps 603 mmHg 25%
    13:00 +28°C° 0 mm 3 mps 603 mmHg 25%
    14:00 +29°C° 0 mm 4 mps 602 mmHg 24%
    15:00 +28°C° 0 mm 4 mps 602 mmHg 28%
    16:00 +26°C° 0 mm 5 mps 602 mmHg 32%
    17:00 +25°C° 0 mm 5 mps 601 mmHg 37%
    18:00 +23°C° 0 mm 5 mps 601 mmHg 42%
    19:00 +21°C° 0 mm 4 mps 602 mmHg 47%
    20:00 +20°C° 0 mm 4 mps 602 mmHg 52%
    21:00 +19°C° 0 mm 3 mps 601 mmHg 54%
    22:00 +19°C° 0 mm 3 mps 601 mmHg 57%
    23:00 +18°C° 0 mm 2 mps 601 mmHg 59%

    27 April, Saturday

    Time Temperature Precipitation Wind Pressure Humidity
    00:00 +18°C° 0 mm 2 mps 600 mmHg 60%
    01:00 +17°C° 0 mm 2 mps 600 mmHg 61%
    02:00 +17°C° 0 mm 2 mps 599 mmHg 62%
    03:00 +17°C° 0 mm 2 mps 599 mmHg 64%
    04:00 +16°C° 0 mm 1 mps 599 mmHg 66%
    05:00 +16°C° 0 mm 1 mps 599 mmHg 68%
    06:00 +19°C° 0 mm 1 mps 600 mmHg 57%
    07:00 +21°C° 0 mm 1 mps 601 mmHg 46%
    08:00 +23°C° 0 mm 1 mps 602 mmHg 35%
    09:00 +25°C° 0 mm 1 mps 603 mmHg 29%
    10:00 +27°C° 0 mm 1 mps 603 mmHg 22%
    11:00 +29°C° 0 mm 2 mps 603 mmHg 16%
    12:00 +30°C° 0 mm 2 mps 603 mmHg 15%
    13:00 +31°C° 0 mm 2 mps 602 mmHg 13%
    14:00 +31°C° 0 mm 2 mps 602 mmHg 12%
    15:00 +30°C° 0 mm 3 mps 602 mmHg 15%
    16:00 +29°C° 0 mm 4 mps 601 mmHg 17%
    17:00 +28°C° 0 mm 4 mps 601 mmHg 20%
    18:00 +27°C° 0 mm 4 mps 601 mmHg 27%
    19:00 +25°C° 0 mm 3 mps 601 mmHg 34%
    20:00 +22°C° 0 mm 3 mps 601 mmHg 42%
    21:00 +21°C° 0 mm 2 mps 600 mmHg 44%
    22:00 +20°C° 0 mm 2 mps 600 mmHg 47%
    23:00 +20°C° 0 mm 1 mps 599 mmHg 50%
    Show more